Terug naar catalogus

STARLINK-31494

ActiefCommunicatieVLEO
NORAD 59238·PAYLOAD·🇺🇸 United States

Gelanceerd Mar 16, 2024 vanaf Cape Canaveral Space Force Station

Loading…

Volgende Passages (komende 24 uur)

TLE

VersSource: CelesTrak SupGP

Epoch: Sep 15, 2026, 03:24 UTC

1 59238C 24049H   26258.14215278  .00048953  00000+0  17732-2 0  2587
2 59238  43.0000 153.3776 0001316 269.7468  70.8084 15.27551959    18

Volg STARLINK-31494 in realtime met AllMySat

Download on the App Store